Regional Weather Roundup
Issued by NWS

Home | Current Version | Previous Version | Text Only | Print | Product List | Glossary Off
Versions: 1 2 3 4 5 6 7 8 9 10 11 12 13 14 15 16 17 18 19 20 21 22 23 24 25 26 27 28 29 30 31 32 33 34 35 36 37 38 39 40 41 42 43 44 45 46 47 48 49 50

000
ASUS43 KMKX 270011
RWRWI

WISCONSIN REGIONAL WEATHER ROUNDUP
NATIONAL WEATHER SERVICE MILWAUKEE/SULLIVAN WI
600 PM CST FRI DEC 26 2014

NOTE: "FAIR" INDICATES FEW OR NO CLOUDS BELOW 12,000 FEET WITH NO
SIGNIFICANT WEATHER AND/OR OBSTRUCTIONS TO VISIBILITY.

WIZ001-002-006>008-014>016-023>028-270100-
NORTHWEST WISCONSIN

CITY           SKY/WX    TMP DP  RH WIND       PRES   REMARKS
SUPERIOR ARPT  CLOUDY    31  22  70 N6        30.11R WCI  25
6HR MIN TEMP:  31; 6HR MAX TEMP:  32;

ASHLAND        CLOUDY    30  27  88 CALM      30.09S
6HR MIN TEMP:  30; 6HR MAX TEMP:  31;

HAYWARD        CLOUDY    30  25  81 N6        30.06R WCI  24
6HR MIN TEMP:  30; 6HR MAX TEMP:  31; 6HR PCP: TRACE;

SIREN          CLOUDY    30  26  86 NE5       30.08R WCI  25
6HR MIN TEMP:  30; 6HR MAX TEMP:  31;

CUMBERLAND     CLOUDY    30  27  86 N9        30.04R WCI  22
RICE LAKE      CLOUDY    32  28  85 N7        30.05S WCI  25
6HR MIN TEMP:  32; 6HR MAX TEMP:  32;

CHETEK         CLOUDY    32  28  84 N6        30.04R WCI  26
6HR MIN TEMP:  32; 6HR MAX TEMP:  32;

LADYSMITH      CLOUDY    32  29  90 N8        30.04S WCI  25
6HR MIN TEMP:  32; 6HR MAX TEMP:  33;

EAU CLAIRE     CLOUDY    33  27  78 NE7       30.02S WCI  27
6HR MIN TEMP:  33; 6HR MAX TEMP:  36;

MENOMONIE      CLOUDY    33  29  85 N7        30.03S WCI  27
6HR MIN TEMP:  33; 6HR MAX TEMP:  34;

NEW RICHMOND   CLOUDY    31  28  90 N10       30.04F WCI  22
6HR MIN TEMP:  31; 6HR MAX TEMP:  32; 6HR PCP:  0.01;

OSCEOLA        CLOUDY    31  29  94 N7        30.09S WCI  24
6HR MIN TEMP:  31; 6HR MAX TEMP:  32;

$$

WIZ003>005-009-010-017-018-270100-
NORTH CENTRAL WISCONSIN

CITY           SKY/WX    TMP DP  RH WIND       PRES   REMARKS
MANITOWISH WTR CLOUDY    29  29 100 N7        30.01S WCI  22
6HR MIN TEMP:  29; 6HR MAX TEMP:  31;

ARBOR VITAE    CLOUDY    32  30  93 CALM      30.01R
6HR MIN TEMP:  32; 6HR MAX TEMP:  32;

WOODRUFF       CLOUDY    32  30  93 CALM      30.01R
6HR MIN TEMP:  32; 6HR MAX TEMP:  32;

RHINELANDER    CLOUDY    30  28  92 NE3       30.01R
6HR MIN TEMP:  30; 6HR MAX TEMP:  30;

EAGLE RIVER    CLOUDY    30  30 100 CALM      30.01R
6HR MIN TEMP:  30; 6HR MAX TEMP:  30;

LAND O LAKES   CLOUDY    31  30  96 N5        30.01S WCI  26
6HR MIN TEMP:  30; 6HR MAX TEMP:  31;

PHILLIPS       CLOUDY    30  28  93 N8        30.01R WCI  23
6HR MIN TEMP:  30; 6HR MAX TEMP:  31;

TOMAHAWK       CLOUDY    31  28  91 CALM      30.02R
6HR MIN TEMP:  31; 6HR MAX TEMP:  32;

MEDFORD        CLOUDY    32  29  92 NE8       30.00R WCI  24
6HR MIN TEMP:  31; 6HR MAX TEMP:  33;

MERRILL        CLOUDY    32  32  99 CALM      30.01R FOG
6HR MIN TEMP:  32; 6HR MAX TEMP:  33;

$$

WIZ029-030-035-036-043>047-270100-
CENTRAL WISCONSIN

CITY           SKY/WX    TMP DP  RH WIND       PRES   REMARKS
WAUSAU         CLOUDY    34  31  88 CALM      29.99R
6HR MIN TEMP:  32; 6HR MAX TEMP:  35;

MOSINEE        CLOUDY    34  34 100 NE6       30.00R WCI  29
MARSHFIELD     CLOUDY    34  31  88 NE8       29.99R WCI  27
6HR MIN TEMP:  34; 6HR MAX TEMP:  40;

STEVENS POINT  CLOUDY    31  31  99 NE3       30.00S FOG
6HR MIN TEMP:  30; 6HR MAX TEMP:  37;

WAUPACA        CLOUDY    34  33  96 N3        30.01S FOG
6HR MIN TEMP:  34; 6HR MAX TEMP:  38;

WAUTOMA        MOCLDY    34  33  96 NE6       30.00R WCI  29
6HR MIN TEMP:  34; 6HR MAX TEMP:  46;

WISC RAPIDS    CLOUDY    34  30  85 NE6       30.01R WCI  29
6HR MIN TEMP:  34; 6HR MAX TEMP:  45;

CAMP DOUGLAS   CLOUDY    35  35 100 N6        29.98R WCI  30
6HR MIN TEMP:  35; 6HR MAX TEMP:  45;

$$

WIZ011>013-019>022-031-037>040-048>050-270100-
NORTHEAST WISCONSIN

CITY           SKY/WX    TMP DP  RH WIND       PRES   REMARKS
ANTIGO         CLOUDY    32  32 100 NE6       30.01R FOG     WCI  26
6HR MIN TEMP:  31; 6HR MAX TEMP:  32;

SHAWANO        FOG       34  33  96 NE5       30.03R VSB 1/2 WCI  30
6HR MIN TEMP:  33; 6HR MAX TEMP:  35;

OCONTO         CLOUDY    35  35 100 CALM      30.03R
6HR MIN TEMP:  34; 6HR MAX TEMP:  37;

STURGEON BAY   CLOUDY    36  32  87 N3        30.04S
6HR MIN TEMP:  36; 6HR MAX TEMP:  39;

GREEN BAY      CLOUDY    35  33  92 N3        30.03R FOG
6HR MIN TEMP:  35; 6HR MAX TEMP:  45;

MANITOWOC      CLOUDY    38  37  97 CALM      30.01S
6HR MIN TEMP:  37; 6HR MAX TEMP:  47;

APPLETON       CLOUDY    34  34 100 N9        30.01R FOG     WCI  26
CLINTONVILLE   CLOUDY    32  32 100 NE6       30.02R FOG     WCI  26
OSHKOSH        CLOUDY    38  33  82 NE7       30.00R WCI  33
6HR MIN TEMP:  38; 6HR MAX TEMP:  45;

$$

WIZ032>034-041-042-053>061-270100-
SOUTHWEST WISCONSIN

CITY           SKY/WX    TMP DP  RH WIND       PRES   REMARKS
LA CROSSE      MOCLDY    36  31  82 N8        29.99S WCI  30
6HR MIN TEMP:  36; 6HR MAX TEMP:  43;

SPARTA         CLOUDY    37  32  82 CALM      30.00R
6HR MIN TEMP:  37; 6HR MAX TEMP:  44;

VIROQUA        CLOUDY    34  34 100 CALM      29.97R
6HR MIN TEMP:  34; 6HR MAX TEMP:  41;

BOSCOBEL       MOCLDY    38  32  79 CALM      29.99R
6HR MIN TEMP:  36; 6HR MAX TEMP:  47;

PRAIRIE DU CHI CLOUDY    38  32  79 CALM      29.98R
6HR MIN TEMP:  38; 6HR MAX TEMP:  45;

PLATTEVILLE    CLOUDY    40  36  84 CALM      29.99R
6HR MIN TEMP:  40; 6HR MAX TEMP:  44;

$$

WIZ056-057-062-063-064-067-068-270100-
SOUTH CENTRAL WISCONSIN

CITY           SKY/WX    TMP DP  RH WIND       PRES   REMARKS
REEDSBURG      MOCLDY    37  33  84 CALM      29.97S
6HR MIN TEMP:  37; 6HR MAX TEMP:  45;

BARABOO/DELLS  MOCLDY    35  32  86 CALM      29.97S
6HR MIN TEMP:  35; 6HR MAX TEMP:  46;

LONE ROCK      MOCLDY    38  31  76 E6        29.98R WCI  33
6HR MIN TEMP:  37; 6HR MAX TEMP:  49;

MINERAL POINT  MOCLDY    41  34  75 CALM      29.97R
MADISON        CLOUDY    36  32  85 CALM      29.98R
6HR MIN TEMP:  35; 6HR MAX TEMP:  46;

MIDDLETON      MOCLDY    37  35  91 CALM      29.99R
6HR MIN TEMP:  37; 6HR MAX TEMP:  47;

WATERTOWN      MOCLDY    35  34  96 SE3       29.99R
6HR MIN TEMP:  34; 6HR MAX TEMP:  45; 6HR PCP:  0.01;

MONROE         MOCLDY    43  36  75 S3        29.98R
JANESVILLE     MOCLDY    43  36  75 CALM      29.98R
$$

WIZ051-052-058>065-066-070>072-270100-
SOUTHEAST WISCONSIN

CITY           SKY/WX    TMP DP  RH WIND       PRES   REMARKS
MILWAUKEE      MOCLDY    41  34  76 CALM      30.01R
6HR MIN TEMP:  39; 6HR MAX TEMP:  49;

WAUKESHA       PTCLDY    37  32  81 CALM      30.00R
MILWAUKEE/TIMM CLEAR     41  34  75 CALM      30.01R
RACINE         MOCLDY    41  35  79 CALM      30.02R
6HR MIN TEMP:  40; 6HR MAX TEMP:  49;

BURLINGTON     CLOUDY    37  34  87 CALM      30.00R
6HR MIN TEMP:  36; 6HR MAX TEMP:  47;

KENOSHA        MOCLDY    44  37  76 S5        30.01R
6HR MIN TEMP:  42; 6HR MAX TEMP:  49;

FOND DU LAC    PTCLDY    35  31  85 CALM      30.00R
6HR MIN TEMP:  35; 6HR MAX TEMP:  46;

SHEBOYGAN      PTCLDY    35  33  92 CALM      30.00R
6HR MIN TEMP:  35; 6HR MAX TEMP:  47;

WEST BEND      PTCLDY    34  32  93 CALM      30.00R
JUNEAU         PTCLDY    36  33  90 CALM      30.00R
6HR MIN TEMP:  36; 6HR MAX TEMP:  44;

$$

LSZ147-162-270100-
LAKE SUPERIOR

STATION/POSITION TIME  TEMP    WIND        PRES    WAVE
                       AIR SEA DIR/SP/G            HT/PER
                 (UTC) (F)     (DEG/KT/KT) (MB)    (FT/S)
DEVILS ISLAND    0000   33     360/  9/ 10 1019.8R
PORT WING        2340   33     360/  4/  6 1019.3R
SAXON HARBOR     2300   33     350/  4/  6 1018.6R
$$

LMZ867-665-643>646-270100-
LAKE MICHIGAN

STATION/POSITION TIME  TEMP    WIND        PRES    WAVE


USA.gov is the U.S. government's official web portal to all federal, state and local government web resources and services.